Stations météo

Publicité
Bastia, France (7790): Température de l'air & dewpoint: 20.05.2019 21:00:00 - 26.05.2019 21:00:00 (CEST)Bastia, France (7790): Température de l'air 5cm: 20.05.2019 21:00:00 - 26.05.2019 21:00:00 (CEST)Bastia, France (7790): Température de l'air -20cm & Température de l'air -100cm: 20.05.2019 21:00:00 - 26.05.2019 21:00:00 (CEST)Bastia, France (7790): Vitesse du vent & gusts: 20.05.2019 21:00:00 - 26.05.2019 21:00:00 (CEST)Bastia, France (7790): Direction du vent: 20.05.2019 21:00:00 - 26.05.2019 21:00:00 (CEST)Bastia, France (7790): reduced air pressure: 20.05.2019 21:00:00 - 26.05.2019 21:00:00 (CEST)Bastia, France (7790): visibility: 20.05.2019 21:00:00 - 26.05.2019 21:00:00 (CEST)Bastia, France (7790): Ensoleillement: 20.05.2019 21:00:00 - 26.05.2019 21:00:00 (CEST)Bastia, France (7790): Quantités de précipitations: 20.05.2019 21:00:00 - 26.05.2019 21:00:00 (CEST)
Date & Time tt [°C] td [°C] tt 5cm [°C] tt -20cm [°C] tt -100cm [°C] ff [km/h] ff [knt] fx [km/h] fx [knt] dd ppp [hPa] vv [km] sd [min] rr [mm]
26.05.2019 21:00:00 16,3 15,5 16,6 17,7 16,3 10 5 19 11 NNE 1009,5 9 0 0,4
26.05.2019 20:00:00 16,6 15,8 16,9 17,7 16,3 10 5 23 13 NNE 1009,7 13 0 0,4
26.05.2019 19:00:00 16,6 15,8 16,7 17,7 16,3 13 7 26 14 NNE 1009,9 8 0 1,4
26.05.2019 18:00:00 16,4 15,6 16,4 17,7 16,2 19 11 32 17 N 1010,0 12 0 1,9
26.05.2019 17:00:00 16,3 15,2 16,5 17,8 16,3 18 10 30 16 N 1010,3 14 0 -
26.05.2019 16:00:00 16,1 15,0 15,7 17,7 16,2 8 4 11 6 W 1010,7 10 0 3,6
26.05.2019 15:00:00 16,3 14,7 16,0 17,7 16,2 4 2 8 4 S 1011,2 2,1 0 6,9
26.05.2019 14:00:00 17,3 14,4 17,4 17,7 16,2 2 1 16 9 WSW 1011,8 5 0 1,0
26.05.2019 13:00:00 17,8 12,9 18,1 17,8 16,2 3 2 36 19 W 1012,3 10 0 0,2
26.05.2019 12:00:00 18,1 14,6 19,6 17,8 16,2 6 3 30 16 NNE 1012,4 20 0 0,2
26.05.2019 11:00:00 19,2 12,9 20,9 17,8 16,2 3 2 8 5 SE 1012,4 20 0 0,0
26.05.2019 10:00:00 18,3 12,5 19,5 17,9 16,2 3 2 8 4 E 1012,6 19 0 0,0
26.05.2019 09:00:00 16,5 13,6 16,3 17,9 16,2 2 1 6 3 S 1012,5 44 0 0,0
26.05.2019 08:00:00 15,1 13,6 14,1 17,9 16,2 3 2 8 4 SSW 1012,4 33 0 0,0
26.05.2019 07:00:00 14,0 12,9 12,8 18,0 16,2 6 3 8 4 SSW 1012,3 19 0 0,0
26.05.2019 06:00:00 13,9 12,6 12,9 18,0 16,2 5 3 16 8 SW 1012,1 20 0 -
26.05.2019 05:00:00 14,2 13,1 13,0 18,1 16,2 6 3 11 6 SW 1012,1 20 0 -
26.05.2019 04:00:00 14,0 13,2 12,2 18,1 16,2 5 3 8 5 SW 1012,5 10 - -
26.05.2019 03:00:00 14,2 13,4 12,4 18,1 16,2 5 3 8 4 SSW 1012,5 8 0 0,0
26.05.2019 02:00:00 14,4 13,4 13,1 18,1 16,2 5 3 9 5 NE 1012,9 7 0 0,0
26.05.2019 01:00:00 15,1 14,1 13,6 18,1 16,2 2 1 4 2 S 1013,5 7 0 0,0
26.05.2019 00:00:00 15,5 14,5 13,8 18,1 16,2 3 1 8 4 SW 1013,9 15 0 -
25.05.2019 23:00:00 15,7 14,6 14,3 18,0 16,2 5 3 8 4 SSE 1014,2 11 0 0,0
25.05.2019 22:00:00 16,2 14,6 14,8 18,0 16,2 5 3 7 4 SE 1014,2 14 0 0,0
25.05.2019 21:00:00 17,1 14,9 16,2 17,9 16,1 5 3 13 7 SE 1013,8 3,1 0 0,0
25.05.2019 20:00:00 17,9 15,0 18,6 17,9 16,2 8 5 24 13 SE 1013,7 20 0 0,0
25.05.2019 19:00:00 18,6 15,3 20,5 17,8 16,1 11 6 22 12 SE 1013,3 40 41 0,0
25.05.2019 18:00:00 19,4 15,5 24,2 17,7 16,1 13 7 24 13 ESE 1013,3 33 16 0,0
25.05.2019 17:00:00 20,3 15,7 26,1 17,6 16,1 15 8 27 15 SE 1013,4 20 35 0,0
25.05.2019 16:00:00 19,5 15,8 26,7 17,6 16,1 16 9 25 13 ESE 1014,0 32 2 0,0
25.05.2019 15:00:00 20,1 15,3 30,8 17,5 16,1 14 7 29 15 ESE 1014,5 42 26 0,0
25.05.2019 14:00:00 20,5 15,9 35,3 17,5 16,1 16 9 29 16 E 1014,8 16 45 0,0
25.05.2019 13:00:00 20,8 14,9 34,9 17,5 16,1 17 9 26 14 ESE 1015,1 16 57 0,0
25.05.2019 12:00:00 21,1 15,6 25,8 17,5 16,1 12 7 23 12 ESE 1015,2 16 48 0,0
25.05.2019 11:00:00 18,8 14,7 22,9 17,6 16,1 13 7 22 12 SE 1015,3 14 12 0,0
25.05.2019 10:00:00 17,9 15,3 18,6 17,6 16,1 8 4 19 10 ESE 1015,1 14 1 0,0
25.05.2019 09:00:00 16,2 14,6 16,2 17,7 16,1 4 2 6 4 S 1014,9 15 0 0,0
25.05.2019 08:00:00 15,0 13,7 14,5 17,7 16,1 4 2 8 4 SSW 1014,4 14 0 0,0
25.05.2019 07:00:00 13,9 12,8 13,6 17,8 16,1 5 3 9 5 S 1014,5 12 0 -
25.05.2019 06:00:00 13,4 12,5 10,3 17,8 16,1 5 3 7 4 SSW 1014,1 14 0 -
25.05.2019 05:00:00 12,6 11,7 9,8 17,9 16,1 6 3 11 6 SW 1013,9 14 0 0,0
25.05.2019 04:00:00 12,8 11,7 10,1 17,9 16,1 7 4 9 5 SW 1014,1 14 0 0,0
25.05.2019 03:00:00 12,9 12,0 9,8 17,9 16,1 6 3 9 5 SW 1014,0 11 0 0,2
25.05.2019 02:00:00 - - 10,0 18,0 16,1 6 3 9 5 SSW - 10 0 0,0
25.05.2019 01:00:00 13,1 12,0 10,5 17,9 16,0 4 2 9 5 SSW 1014,4 7 0 0,0
25.05.2019 00:00:00 13,9 12,9 10,9 18,0 16,1 6 3 8 4 SW 1014,5 9 0 0,0
24.05.2019 23:00:00 14,3 13,2 11,6 17,9 16,1 4 2 6 4 SSW 1014,6 4,7 0 -
24.05.2019 22:00:00 15,6 14,3 12,4 17,9 16,1 3 1 5 3 SSW 1014,5 10 0 0,0
24.05.2019 21:00:00 16,9 14,5 14,3 17,8 16,0 3 1 8 5 S 1014,2 2,9 8 0,0
24.05.2019 20:00:00 18,4 14,7 17,8 17,7 16,0 7 4 13 7 ESE 1013,9 20 51 0,0
24.05.2019 19:00:00 19,8 13,9 22,0 17,5 16,0 8 4 16 9 E 1013,7 20 60 0,0
24.05.2019 18:00:00 20,5 14,8 26,3 17,4 16,0 10 5 17 9 E 1013,7 20 60 0,0
24.05.2019 17:00:00 21,0 14,2 33,1 17,3 16,0 10 5 20 11 ESE 1014,2 28 57 0,0
24.05.2019 16:00:00 21,0 14,6 40,2 17,3 16,0 10 6 22 12 E 1014,6 27 60 0,0
24.05.2019 15:00:00 21,1 15,2 43,2 17,2 16,0 13 7 24 13 ESE 1014,9 24 60 0,0
24.05.2019 14:00:00 21,3 15,8 41,4 17,2 16,0 13 7 24 13 E 1015,2 20 60 0,0
24.05.2019 13:00:00 21,2 15,5 36,2 17,2 16,0 12 7 29 15 E 1015,5 22 60 0,0
24.05.2019 12:00:00 21,1 15,0 24,0 17,2 16,0 10 5 20 11 E 1015,7 23 31 0,0
24.05.2019 11:00:00 19,4 14,2 22,1 17,3 16,0 5 3 12 7 SSE 1015,9 18 0 0,0
24.05.2019 10:00:00 18,4 13,9 19,0 17,3 16,0 3 2 11 6 NW 1016,2 19 12 0,0
24.05.2019 09:00:00 16,1 14,1 16,1 17,4 16,0 6 3 9 5 SSW 1016,1 18 0 0,0
24.05.2019 08:00:00 14,5 13,0 13,3 17,4 16,0 5 3 12 6 SSW 1015,9 14 0 0,0
24.05.2019 07:00:00 13,0 12,1 9,1 17,5 16,0 8 4 11 6 SW 1015,8 13 0 0,0
24.05.2019 06:00:00 12,0 11,1 9,0 17,5 16,0 7 4 10 5 SW 1015,7 16 0 0,0
24.05.2019 05:00:00 12,0 11,1 9,2 17,6 16,0 6 3 11 6 SW 1015,7 10 0 -
24.05.2019 04:00:00 12,7 11,8 9,2 17,6 16,0 8 4 12 6 SW 1015,8 12 0 -
24.05.2019 03:00:00 12,7 11,8 9,2 17,7 16,0 5 3 9 5 WSW 1016,0 10 0 0,2
24.05.2019 02:00:00 13,0 12,1 9,6 17,7 16,0 5 3 9 5 SW 1016,1 11 0 0,0
24.05.2019 01:00:00 13,1 12,2 10,1 17,7 16,0 5 3 8 4 SSW 1016,5 4,2 0 0,0
24.05.2019 00:00:00 14,2 12,9 10,9 17,7 16,0 3 1 7 4 NW 1016,5 11 0 0,0
23.05.2019 23:00:00 14,5 13,2 11,2 17,6 15,9 5 3 8 4 SW 1016,6 12 0 0,0
23.05.2019 22:00:00 15,2 13,7 12,2 17,6 16,0 4 2 5 3 S 1016,8 16 0 -
23.05.2019 21:00:00 16,5 14,0 14,4 17,5 15,9 3 2 7 4 E 1016,5 1,1 0 0,0
23.05.2019 20:00:00 17,9 14,4 17,0 17,4 15,9 4 2 14 8 E 1016,3 20 34 0,0
23.05.2019 19:00:00 19,5 14,9 - 17,4 15,9 9 5 19 10 ESE 1015,9 20 60 0,0
23.05.2019 18:00:00 20,0 15,0 - 17,3 15,9 12 6 - - ESE - 20 - -
23.05.2019 17:00:00 20,5 14,6 33,9 17,3 15,9 13 7 23 12 E 1016,2 15 55 0,0
23.05.2019 16:00:00 21,3 15,2 30,8 17,2 15,9 14 7 22 12 E 1016,5 15 44 0,0
23.05.2019 15:00:00 20,9 15,7 28,2 17,2 15,9 9 5 19 10 ESE 1017,1 19 23 0,0
23.05.2019 14:00:00 19,7 14,9 25,1 17,2 15,9 8 4 17 9 E 1017,7 20 0 0,0
23.05.2019 13:00:00 19,5 14,3 22,8 17,2 15,9 8 4 22 12 E 1018,1 19 0 0,0
23.05.2019 12:00:00 19,3 13,2 24,4 17,2 15,9 9 5 19 11 ENE 1018,1 31 0 0,0
23.05.2019 11:00:00 19,7 13,8 20,9 17,2 15,9 9 5 19 11 ENE 1018,1 60 20 0,0
23.05.2019 10:00:00 18,5 13,8 21,2 17,3 15,9 5 3 17 9 E 1018,1 19 26 0,0
23.05.2019 09:00:00 17,8 14,1 16,5 17,4 15,9 3 1 8 5 SSW 1018,0 20 13 0,0
23.05.2019 08:00:00 15,2 13,4 13,3 17,4 15,9 5 3 9 5 SW 1017,7 20 5 0,0
23.05.2019 07:00:00 13,8 12,7 9,4 17,4 15,9 5 3 11 6 SW 1017,3 15 39 0,0
23.05.2019 06:00:00 12,2 11,1 9,5 17,5 15,9 4 2 8 4 SSW 1017,3 5 0 -
23.05.2019 05:00:00 - - 10,1 17,5 15,9 0 0 5 3 N - 12 0 -
23.05.2019 04:00:00 13,6 12,2 10,9 17,5 15,9 4 2 6 3 WSW 1017,1 11 0 0,0
23.05.2019 03:00:00 14,6 13,0 13,5 17,6 15,8 2 1 9 5 SW 1017,3 12 0 0,0
23.05.2019 02:00:00 15,5 13,7 14,3 17,6 15,8 6 3 13 7 WSW 1017,4 14 0 0,0
23.05.2019 01:00:00 15,4 13,8 11,2 17,6 15,8 8 5 13 7 NW 1017,4 18 0 0,0
23.05.2019 00:00:00 14,2 12,9 11,3 17,6 15,8 7 4 16 8 W 1017,1 13 0 0,0
22.05.2019 23:00:00 14,5 13,0 11,5 17,5 15,8 5 3 11 6 NW 1016,7 17 0 0,0
22.05.2019 22:00:00 15,3 13,3 12,9 17,5 15,8 3 1 14 7 WSW 1016,5 11 0 0,0
22.05.2019 21:00:00 16,2 14,0 13,9 17,4 15,8 10 5 16 8 N 1016,0 18 0 0,0
22.05.2019 20:00:00 17,1 14,2 16,7 17,4 15,8 8 5 22 12 N 1015,6 19 9 0,0
22.05.2019 19:00:00 18,5 14,2 21,2 17,3 15,8 10 5 18 10 NE 1015,5 19 55 0,0
22.05.2019 18:00:00 19,2 14,7 25,1 17,3 15,7 9 5 19 10 NE 1015,5 19 26 0,0
22.05.2019 17:00:00 19,3 14,3 26,1 17,2 15,8 8 4 33 18 NNE 1015,6 20 9 0,0
22.05.2019 16:00:00 20,1 15,7 27,2 17,2 15,8 8 4 19 10 ENE 1015,5 17 11 0,0
22.05.2019 15:00:00 19,7 14,9 28,0 17,2 15,7 8 5 27 14 E 1015,8 19 2 0,0
22.05.2019 14:00:00 19,8 15,2 25,1 17,2 15,8 12 7 28 15 E 1016,2 16 4 0,0
22.05.2019 13:00:00 19,6 14,0 24,9 17,2 15,7 8 4 19 10 NE 1016,4 19 2 0,0
22.05.2019 12:00:00 19,4 14,6 24,7 17,2 15,7 10 6 28 15 NE 1016,3 18 3 0,0
22.05.2019 11:00:00 20,5 14,8 23,8 17,2 15,7 10 5 24 13 NNE 1015,8 19 17 0,0
22.05.2019 10:00:00 18,6 14,7 20,8 17,3 15,7 9 5 16 9 NE 1015,5 17 12 0,0
22.05.2019 09:00:00 18,3 14,0 15,3 17,3 15,7 5 3 33 18 NNE 1015,4 14 53 0,0
22.05.2019 08:00:00 15,1 13,0 12,6 17,4 15,7 4 2 10 5 SW 1015,2 20 29 0,0
22.05.2019 07:00:00 12,6 11,0 10,1 17,4 15,7 7 4 9 5 SW 1015,4 20 0 0,0
22.05.2019 06:00:00 11,9 10,3 10,1 17,5 15,7 8 4 10 5 SW 1015,0 20 0 0,0
22.05.2019 05:00:00 12,0 10,4 10,6 17,5 15,7 4 2 8 5 SSW 1015,0 20 0 0,0
22.05.2019 04:00:00 12,7 10,6 11,2 17,5 15,7 5 3 10 5 SW 1015,0 20 0 0,0
22.05.2019 03:00:00 12,2 10,6 9,7 17,5 15,7 5 3 11 6 SSW 1014,9 33 0 0,0
22.05.2019 02:00:00 12,2 10,6 9,6 17,5 15,7 8 4 12 6 SW 1014,9 30 0 0,0
22.05.2019 01:00:00 12,2 10,8 9,8 17,5 15,7 5 3 11 6 SSW 1015,3 20 0 0,0
22.05.2019 00:00:00 12,8 11,4 10,4 17,5 15,7 8 4 11 6 SW 1015,5 20 0 0,0
21.05.2019 23:00:00 13,4 - 10,8 17,4 15,7 5 3 9 5 SW - 20 0 0,0
21.05.2019 22:00:00 14,5 12,5 12,0 17,4 15,7 5 3 9 5 SSW 1015,1 19 0 0,0
21.05.2019 21:00:00 16,0 13,1 13,5 17,3 15,6 4 2 14 7 W 1014,3 20 2 0,0
21.05.2019 20:00:00 17,9 13,6 17,3 17,2 15,7 11 6 18 10 N 1013,9 34 45 0,0
21.05.2019 19:00:00 19,6 12,6 21,8 17,0 15,7 11 6 19 11 N 1013,6 43 60 0,0
21.05.2019 18:00:00 20,6 13,1 27,6 16,9 15,7 13 7 31 17 N 1013,5 48 60 0,0
21.05.2019 17:00:00 21,1 14,0 35,1 16,8 15,7 9 5 21 12 NNE 1013,4 20 60 0,0
21.05.2019 16:00:00 20,6 14,7 39,1 16,7 15,7 14 7 31 17 NE 1013,3 20 56 0,0
21.05.2019 15:00:00 21,4 13,8 46,3 16,6 15,7 13 7 25 13 NE 1013,2 20 60 0,0
21.05.2019 14:00:00 21,3 13,2 44,4 16,6 15,7 14 8 27 15 NNE 1012,9 52 60 0,0
21.05.2019 13:00:00 21,4 14,8 35,3 16,6 15,6 14 8 36 19 NNE 1012,5 60 60 0,0
21.05.2019 12:00:00 21,0 15,1 27,6 16,6 15,7 14 7 24 13 NNE 1012,2 19 60 0,0
21.05.2019 11:00:00 20,2 14,6 22,2 16,6 15,7 13 7 23 13 NNE 1011,9 53 60 0,0
21.05.2019 10:00:00 19,1 14,1 17,6 16,7 15,6 11 6 18 10 NNE 1011,5 50 50 0,0
21.05.2019 09:00:00 18,1 13,8 14,3 16,7 15,6 4 2 12 7 NE 1011,1 19 54 0,0
21.05.2019 08:00:00 15,1 12,2 11,2 16,8 15,6 3 2 8 5 NW 1010,4 50 57 0,0
21.05.2019 07:00:00 12,3 11,4 8,3 16,8 15,6 5 3 11 6 SW 1010,0 47 42 0,0
21.05.2019 06:00:00 11,0 10,1 7,8 16,9 15,6 6 4 11 6 SW 1009,8 42 0 0,0
21.05.2019 05:00:00 11,5 10,6 8,4 16,9 15,6 4 2 10 6 SW 1009,7 36 0 0,0
21.05.2019 04:00:00 11,6 10,5 8,7 16,9 15,6 4 2 10 5 S 1009,8 19 0 0,0
21.05.2019 03:00:00 12,5 11,2 9,5 16,9 15,6 5 3 8 5 SW 1010,0 14 0 0,2
21.05.2019 02:00:00 13,5 11,9 12,3 16,9 15,6 2 1 6 3 S 1010,2 18 0 0,0
21.05.2019 01:00:00 13,8 11,7 13,0 16,9 15,6 5 3 9 5 SW 1010,4 60 0 0,0
21.05.2019 00:00:00 13,7 11,7 12,2 16,8 15,6 5 3 7 4 S 1010,3 23 0 0,0
20.05.2019 23:00:00 13,7 11,4 11,4 16,8 15,6 5 3 9 5 SSW 1010,3 49 0 0,0
20.05.2019 22:00:00 14,0 11,3 11,3 16,8 15,7 6 3 13 7 S 1009,9 56 0 0,0
20.05.2019 21:00:00 15,0 11,4 13,9 16,6 15,6 8 4 11 6 S 1009,4 2,4 17 0,0

tt = Température de l'air
td = dewpoint
tt 5cm = Température de l'air 5cm
tt -20cm = Température de l'air -20cm
tt -100cm = Température de l'air -100cm
ff = Vitesse du vent
fx = gusts
dd = Direction du vent
ppp = reduced air pressure
vv = visibility
sd = Ensoleillement
rr = Quantités de précipitations

stations d'obs. à proximité